Location: Newark
(50.8922°N, 11.6094°E)
Time: 13:37:47
(UTC+00:00)

N. Korean satellite - Pass Details

Date: 01 February 2020
Orbit: 456 x 505 km, 97.2° (Epoch: 24 February)

Event Time Altitude Azimuth Distance (km) Brightness Sun altitude
Rises 04:15:49 0° 25° (NNE) 2,564 10.6 -24.5°
Reaches altitude 10° 04:18:16 10° 42° (NE) 1,687 9.8 -24.1°
Maximum altitude 04:21:06 21° 93° (E) 1,151 9.3 -23.7°
Drops below altitude 10° 04:23:56 10° 144° (SE) 1,695 9.7 -23.2°
Sets 04:26:23 0° 161° (SSE) 2,580 10.5 -22.8°
